STARLINK-30996, 59023

Orbit data source: Space-Track

STARLINK-30996, 59023 is a payload satellite owned by SpaceX/Seattle (US) in LEO that was launched on Sun, 25 Feb 2024 UTC via an FALCON 9 launch vehicle from the Air Force Eastern Test Range (AFETR). Payload-class satellites include a variety of spacecraft equipped with specific instruments for various scientific and technological missions. These include communications satellites like Starlink; space stations such as the ISS; scientific satellites like the Hubble; Earth observation satellites from companies like Planet Labs, Umbra, and HawkEye 360; GPS; miniature CubeSats for education and research; and military/defense satellites.

Loading next visibility...
Identifier
59023, 2024-038A
Orbit
LEO
Country
Flag of USUS
Related business
Manufacturer
SpaceX/Seattle
Mission
Operational Commercial Communications
Bus & Motor
STARLINK V2M, Unknown motor
Mass
730 kg wet, ~700 kg dry
Launch date (UTC)
2024-02-25 (2 years ago)
Launch vehicle
FALCON 9
Launch site
Air Force Eastern Test Range (AFETR)
Object type
Payload
Rocket body
Debris
Shape & HBR
Box + 2 Pan, 17.7 m
Radar Cross Section
33.884 m², Large (>1 m²)

Expand to show TLE details & history
Last TLE update: 3 days ago

TLE from 3 days ago
0 STARLINK-30996
1 59023U 24038A   26171.05774359  .00001947  00000-0  80213-4 0  9992
2 59023  43.0025 168.9344 0001892 281.2303  78.8336 15.27608206131781
Epoch: 2026-06-20T01:23Z
TLE epoch observation values (Epoch: 2026-06-20T01:23:09.046Z)
Latitude
-0°
Longitude
-120.13112°
Altitude
482.489 km
Speed
7.626 km/s
True Right ascension
11h 15m 44s
True Declination
0° 00' 00"
Sunlit
Object was in daylight at epoch
Visualization orbit readout
Latitude
Unknown
Longitude
Unknown
Altitude
Unknown
Speed
Unknown
Apparent Right ascension
Unknown
Apparent Declination
Unknown
Sunlit
N/A
Visualization observer readout
Local Sidereal Time
00:55:21
Azimuth
Unknown
Elevation
Unknown
Doppler factor
Unknown
Orbital elements
Apogee altitude
486.208 km
Perigee altitude
483.611 km
Semi-major axis
6,863.046 km
Eccentricity
0.00019
Inclination
43.0025°
RAAN
168.9344°
Arg. of periapsis
281.2303°
True anomaly
78.85487°
Mean anomaly
78.8336°
Eccentric anomaly
78.84424°
Mean motion
3.8174 °/min
Orbital period
94.31 mins
BSTAR
0.000080213
Loading maneuver chart data...
Computing Atmospheric mass density...
Loading historical data...
Loading historical data...
Loading historical data...
Loading historical data...
Loading historical data...
Loading historical data...
Loading historical data...

Documentation

Showing up to 5 results
|